Location: Bielawa
(50.6769°N, 16.6032°E)
Time: 04:44:21
(UTC+01:00)

ISS - Visible Passes

Search period start: 24 November 2017 00:00
Search period end: 04 December 2017 00:00
Orbit: 402 x 407 km, 51.6° (Epoch: 24 November)

Date Brightness Start Highest point End Pass type
(mag) Time Alt. Az. Time Alt. Az. Time Alt. Az.
28 Nov -1.5 18:16:40 10° SSW 18:17:50 17° S 18:17:50 17° S visible
29 Nov -1.8 17:25:10 10° S 17:27:13 16° SE 17:27:45 15° SE visible
29 Nov -0.7 18:59:58 10° WSW 19:00:25 13° WSW 19:00:25 13° WSW visible
30 Nov -2.7 18:07:46 10° SW 18:10:15 36° S 18:10:15 36° S visible
01 Dec -2.5 17:15:47 10° SSW 17:18:37 28° SSE 17:20:01 20° ESE visible
01 Dec -1.1 18:51:34 10° WSW 18:52:40 19° WSW 18:52:40 19° WSW visible
02 Dec -1.8 16:24:04 10° S 16:26:25 18° SE 16:28:46 10° E visible
02 Dec -3.8 17:59:12 10° WSW 18:02:23 67° S 18:02:23 67° S visible
03 Dec -3.3 17:06:56 10° SW 17:10:06 47° SSE 17:12:04 20° E visible
03 Dec -1.5 18:43:13 10° W 18:44:42 24° W 18:44:42 24° W visible
